EHI
0 0 0 0 0 0 0 0 0 0 0 1 1 1 0 0 0 1 1 4 10 13 8 10 22 39 52 58 57 47 33 23 18 11 5 1 0 0 0 0 0 0 0 0 0 0 0 0 0
0 0 0 0 0 0 0 0 0 1 1 0 0 0 0 0 1 2 2 4 10 12 8 11 25 40 50 55 53 46 33 22 14 8 3 0 0 0 0 0 0 0 0 0 0 0 0 0 0
0 0 0 0 0 0 0 0 0 1 1 0 0 0 0 0 1 1 2 5 10 12 9 16 34 46 50 51 51 45 32 17 8 4 2 0 0 0 0 0 0 0 0 0 0 0 0 0 0
0 0 0 0 0 0 0 0 0 1 1 0 0 1 1 1 1 1 3 7 12 14 15 25 43 54 54 52 50 45 31 15 7 4 2 0 0 0 0 0 0 0 0 0 0 0 0 0 0
0 0 0 0 0 0 0 0 0 0 0 0 1 1 3 4 3 4 6 9 14 21 25 33 46 55 56 54 50 42 29 16 10 6 3 0 0 0 0 0 0 0 0 0 0 0 0 0 0
0 0 0 0 0 0 0 0 0 1 0 0 0 1 3 4 6 6 8 11 18 28 33 35 39 45 49 50 46 37 26 17 11 6 2 1 1 1 1 1 1 0 0 0 0 0 0 0 0
0 0 0 0 0 0 0 0 0 0 0 0 1 1 1 3 6 8 10 14 21 27 30 30 29 30 34 38 39 33 25 18 11 4 2 2 2 2 2 2 1 0 0 0 0 0 0 0 0
0 0 0 0 0 0 0 0 0 0 1 2 3 2 2 4 7 9 12 15 16 17 18 19 21 21 21 24 28 27 22 16 10 4 1 2 1 1 2 2 1 0 0 0 0 0 0 0 0
0 0 0 0 0 1 3 3 2 2 2 3 4 6 8 11 11 10 12 10 6 5 5 7 11 14 15 15 15 15 13 10 6 2 1 1 0 0 1 2 2 2 1 1 2 1 1 1 0
0 0 0 0 0 2 5 6 4 5 4 4 8 13 20 21 15 11 8 5 1 0 1 2 4 8 9 8 6 5 4 3 1 0 0 0 0 0 0 2 3 3 2 2 2 2 2 1 1
0 0 0 0 0 2 5 6 6 6 3 4 10 20 29 27 18 10 5 2 0 1 1 1 2 3 4 4 3 3 1 0 0 0 0 0 0 0 0 1 2 2 1 1 1 2 1 1 0
0 0 0 0 0 2 4 6 5 4 3 5 12 21 26 24 17 9 3 1 0 1 2 1 1 1 1 3 3 2 1 0 0 0 0 0 0 0 0 0 0 0 0 0 0 0 0 0 0
0 0 0 0 0 2 5 5 3 1 3 8 14 17 18 18 15 9 4 2 2 1 1 0 0 0 1 2 2 1 0 0 0 0 0 0 0 0 0 0 0 0 0 0 0 0 0 0 0
0 0 0 0 0 2 3 3 1 1 4 11 14 15 15 16 14 10 7 6 4 2 0 0 0 0 0 1 1 0 0 0 0 0 0 0 0 0 0 0 0 0 0 0 0 0 0 0 0
0 0 0 0 0 1 2 1 0 1 5 9 11 13 14 13 11 11 12 10 6 3 1 1 0 0 0 0 0 0 0 0 0 0 0 0 0 0 0 0 0 0 0 0 0 0 0 0 0
0 0 0 0 0 1 1 0 0 2 5 6 7 9 10 9 8 10 14 14 9 4 3 2 1 0 0 0 0 0 0 0 0 0 0 0 0 0 0 0 0 0 0 0 0 0 0 0 0
0 0 0 0 0 0 0 0 1 2 4 5 5 5 6 6 6 9 15 15 9 4 3 3 2 1 0 0 0 0 0 0 0 0 0 0 0 0 0 0 0 0 0 0 0 0 0 0 0
0 0 0 0 1 1 1 0 1 3 5 6 5 5 5 6 7 11 15 14 9 5 4 3 2 1 0 0 0 0 0 0 0 0 0 0 0 0 0 0 0 0 0 0 0 0 0 0 0
0 0 0 0 1 2 1 0 1 3 6 7 6 6 6 6 8 11 12 12 9 5 4 3 2 1 0 0 0 0 0 0 0 0 0 0 0 0 0 0 0 0 0 0 0 0 0 0 0
0 0 0 0 1 1 1 0 0 2 5 6 6 6 6 8 10 10 10 10 8 5 4 3 1 0 0 0 0 0 0 0 0 0 0 0 0 0 0 0 0 0 0 0 0 0 0 0 0
0 0 0 0 0 0 0 0 0 1 2 3 4 4 6 9 11 10 8 8 6 4 3 2 1 0 0 0 0 0 0 0 0 0 0 0 0 0 0 0 0 0 0 0 0 0 0 0 0
0 0 0 0 0 0 0 0 0 0 0 1 3 4 5 8 11 9 7 5 4 3 3 1 0 0 0 0 0 0 0 0 0 0 0 0 0 0 0 0 0 0 0 0 0 0 0 0 0
0 0 0 0 0 0 0 0 0 0 0 1 3 5 6 7 9 8 6 4 3 3 2 1 0 0 0 0 0 0 0 0 0 0 0 0 0 0 0 0 0 0 0 0 0 0 0 0 0
0 0 0 0 0 0 0 0 0 0 0 0 2 5 6 6 8 8 7 4 3 3 2 1 0 0 0 0 0 0 0 0 0 0 0 0 0 0 0 0 0 0 0 0 0 0 0 0 0
0 0 0 0 0 0 0 0 0 0 0 0 1 3 4 5 6 8 7 4 3 1 1 0 0 0 0 0 0 0 0 0 0 0 0 0 0 0 0 0 0 0 0 0 0 0 0 0 0
0 0 0 0 0 0 0 0 0 0 0 0 0 1 3 3 4 5 4 3 2 1 0 0 0 0 0 0 0 0 0 0 0 0 0 0 0 0 0 0 0 0 0 0 0 0 0 0 0
0 0 0 0 0 0 0 0 0 0 0 0 0 1 2 2 3 3 2 1 1 0 0 0 0 0 0 0 0 0 0 0 0 0 0 0 0 0 0 0 0 0 0 0 0 0 0 0 0
0 0 0 0 0 0 0 0 0 0 0 0 0 0 1 1 1 1 1 0 0 0 0 0 0 0 0 0 0 0 0 0 0 0 0 0 0 0 0 0 0 0 0 0 0 0 0 0 0
0 0 0 0 0 0 0 0 0 0 0 0 0 0 0 0 0 0 0 0 0 0 0 0 0 0 0 0 1 1 1 0 0 0 0 0 0 0 0 0 0 0 0 0 0 0 0 0 0
0 0 0 0 0 0 0 0 0 0 0 0 0 0 0 0 0 0 0 0 0 0 0 0 0 0 0 1 2 2 1 0 0 0 0 0 0 0 0 0 0 0 0 0 0 0 0 0 0
Wind_Speed
5 3 1 1 2 3 1 1 2 2 3 2 1 0 1 2 2 2 2 7 12 11 9 12 14 15 15 15 15 14 14 14 13 13 12 11 11 10 9 9 9 9 8 8 8 8 8 8 9
4 2 1 2 3 2 1 2 3 2 3 4 3 1 1 1 2 4 4 7 11 10 8 10 14 14 15 14 14 14 14 13 12 12 11 10 10 9 9 8 8 8 8 8 8 8 8 8 8
4 1 2 3 2 2 2 3 4 4 4 4 3 2 1 1 3 4 6 10 9 8 7 10 16 15 14 14 13 13 13 12 12 11 10 9 9 8 8 7 7 7 7 7 7 7 7 7 7
2 2 3 3 1 3 3 3 6 6 2 2 4 4 1 2 2 6 12 11 9 7 6 9 15 15 14 14 13 13 12 12 11 10 9 8 8 7 6 6 6 6 5 6 6 6 6 6 6
3 3 4 2 3 3 1 4 6 5 4 3 4 4 2 3 8 13 12 11 9 6 5 8 14 14 14 13 13 13 12 11 10 9 8 7 7 6 5 5 5 4 4 4 4 5 5 4 4
3 4 3 1 3 1 0 2 4 4 4 3 5 5 2 3 9 11 11 9 8 7 6 7 14 14 14 14 13 12 11 11 10 9 8 7 6 5 4 4 3 3 3 3 3 3 4 3 2
3 3 2 2 3 2 2 2 3 3 4 3 3 5 3 5 6 9 9 8 6 5 5 5 6 9 13 13 12 11 11 10 9 8 7 6 5 5 4 3 3 3 3 3 3 3 3 3 2
4 4 0 2 3 3 3 3 1 2 2 1 2 5 5 7 9 10 9 7 6 5 4 4 4 5 5 6 10 11 10 9 8 8 7 5 4 3 2 1 2 2 2 3 3 3 3 2 2
4 4 2 4 4 4 4 4 2 1 2 1 1 2 4 12 13 11 9 7 5 5 3 3 4 4 4 4 7 8 8 8 6 4 5 4 2 2 2 1 1 2 2 2 2 2 2 1 1
4 3 7 5 4 4 6 5 4 2 2 2 2 3 9 12 12 11 10 9 7 6 5 3 4 4 4 4 4 3 3 4 4 3 4 3 3 2 3 4 4 2 1 1 1 1 1 1 1
5 6 5 3 2 3 5 3 3 3 3 4 6 9 11 11 10 9 9 8 7 6 6 4 4 4 3 3 3 3 3 3 3 4 4 3 3 2 3 2 3 3 4 3 3 3 2 1 1
4 5 3 2 0 3 4 4 2 3 2 2 7 11 11 11 9 9 8 7 6 6 5 5 4 4 3 3 3 3 3 2 2 3 3 3 2 2 2 2 2 2 2 2 2 1 2 2 1
3 3 1 1 3 3 5 3 1 1 0 4 8 9 11 11 8 6 6 6 6 6 5 5 5 5 4 4 3 4 3 3 3 3 3 3 3 2 2 2 2 2 2 2 2 2 2 2 2
2 0 1 2 3 2 4 1 1 2 3 6 7 7 8 8 7 6 6 6 6 5 5 5 5 5 5 4 4 3 3 3 3 2 3 3 2 2 2 2 2 2 2 2 2 2 2 2 1
1 2 3 1 1 1 3 1 4 1 4 6 6 6 6 6 5 7 8 8 7 6 5 5 6 5 5 5 4 4 3 3 3 2 2 3 3 3 3 2 2 2 2 2 2 3 2 2 2
2 2 1 3 2 2 3 5 3 2 4 4 4 5 5 4 5 5 5 6 6 6 5 5 6 6 6 5 4 3 3 3 3 2 2 3 3 3 3 3 2 2 2 2 2 2 2 2 2
2 1 3 3 3 4 4 6 1 2 3 4 4 4 5 4 4 4 6 7 6 6 6 5 5 7 6 5 4 4 3 3 2 2 2 2 3 3 3 3 2 2 3 3 2 3 2 2 3
4 4 3 4 2 3 4 5 1 3 4 5 5 5 5 5 5 5 6 7 6 5 6 5 6 6 6 4 4 3 3 2 2 2 2 3 2 3 3 3 3 3 3 3 2 3 3 2 2
4 4 5 4 2 3 4 5 3 4 4 5 5 6 6 6 4 6 6 7 7 6 6 6 6 6 5 4 3 3 2 2 1 1 2 2 2 3 3 2 2 2 3 2 2 2 3 3 3
4 3 3 1 1 2 2 4 3 3 5 5 5 6 6 5 6 7 7 8 8 7 7 6 7 7 6 4 3 3 3 2 1 1 1 2 2 3 3 3 2 2 2 3 3 2 2 3 4
2 4 4 2 1 3 1 4 2 2 3 4 4 5 6 8 8 8 8 7 8 8 9 8 7 7 6 5 4 4 3 3 2 1 1 1 2 2 2 3 2 2 2 2 2 2 2 2 3
4 3 3 3 3 2 2 3 5 3 3 5 5 5 6 7 7 8 9 9 9 9 7 7 7 6 6 6 6 6 4 3 3 2 2 1 1 2 3 3 3 2 2 2 1 2 1 2 1
2 4 4 3 3 2 2 0 7 1 4 7 8 8 7 8 9 10 10 10 9 8 7 6 6 6 5 6 6 5 4 3 2 1 2 1 0 1 3 3 3 3 2 2 1 2 1 1 1
6 6 6 5 5 2 1 1 7 4 7 6 6 8 8 8 9 8 7 6 6 6 7 7 7 6 6 6 6 6 6 5 4 3 3 1 1 1 2 3 3 3 2 2 2 2 2 1 1
4 5 4 5 4 5 2 2 9 7 6 7 8 9 9 9 9 8 8 8 8 9 8 8 8 7 6 7 6 6 7 7 6 5 4 3 2 1 2 3 3 3 3 3 2 2 2 2 2
4 6 6 4 4 5 2 5 8 5 4 4 5 6 8 9 9 10 11 10 10 10 9 9 9 8 8 7 7 6 6 4 4 5 4 4 3 3 3 3 3 3 3 3 3 2 2 2 2
5 3 4 6 2 2 5 7 9 2 1 2 4 6 8 9 10 11 10 10 10 10 10 11 10 8 8 8 7 6 6 6 5 5 4 3 3 3 4 4 4 3 3 3 3 2 3 2 3
4 7 5 5 3 3 5 5 5 4 4 4 5 7 8 8 9 9 9 10 10 10 9 9 10 10 9 8 8 7 7 6 6 5 5 5 4 4 4 4 4 4 4 3 3 3 3 3 3
3 4 5 4 4 4 3 8 7 7 7 8 9 9 9 10 11 10 9 9 9 8 8 9 9 8 8 9 8 7 7 6 6 5 6 5 5 5 5 5 4 4 4 4 3 4 3 4 4
3 5 7 4 3 4 3 10 5 5 5 7 8 8 8 9 9 9 9 8 8 9 9 10 10 10 9 9 8 8 7 7 7 7 7 6 6 6 6 5 5 5 5 4 4 5 4 5 5
Wind_Direction
164 150 140 81 58 53 93 201 167 157 132 133 80 344 281 281 262 268 88 133 132 137 145 151 147 143 138 133 131 129 129 129 128 127 128 128 129 129 129 127 125 122 120 117 114 110 108 106 104
141 155 74 57 74 49 280 194 163 155 150 155 109 65 356 38 68 99 119 135 135 137 139 150 148 144 141 137 135 133 133 133 133 132 133 133 133 134 134 131 129 126 123 121 120 116 112 109 106
155 150 83 69 85 183 222 191 156 130 120 141 123 101 38 97 125 119 136 135 125 129 135 154 150 148 145 142 139 138 137 138 139 138 139 140 141 142 140 136 135 133 131 130 126 123 119 116 113
128 61 56 66 267 237 216 180 154 152 120 90 125 102 63 21 127 131 134 133 125 122 132 152 150 148 147 145 142 141 141 142 143 143 145 147 148 147 145 143 142 142 142 137 133 130 128 124 120
73 81 60 13 273 258 207 159 165 158 154 138 125 107 73 20 108 127 133 137 134 127 132 145 148 148 147 146 145 146 146 147 148 149 151 153 153 153 153 153 151 150 152 150 146 143 139 135 128
66 69 78 298 280 264 101 149 155 154 155 150 131 116 77 103 123 131 134 134 134 129 127 140 150 150 149 149 150 150 150 151 152 153 154 155 155 156 160 159 159 165 173 171 171 168 160 152 140
106 103 164 242 271 253 191 167 180 170 157 161 148 118 118 132 137 128 123 120 118 117 119 125 141 149 152 153 152 152 151 151 151 151 152 155 157 159 164 171 182 185 189 195 196 199 194 182 176
135 106 297 262 245 239 168 160 199 161 156 122 135 136 167 163 140 124 115 111 115 112 113 117 120 125 134 146 152 152 151 150 150 153 155 155 149 153 163 178 213 210 210 214 216 222 224 218 206
109 78 246 235 221 223 173 171 176 107 102 91 35 94 140 138 131 126 123 122 136 140 120 120 121 121 122 134 150 147 146 142 134 133 129 111 68 43 28 6 246 232 238 237 243 245 241 239 248
114 167 233 227 218 189 177 179 169 159 154 153 121 95 122 132 136 142 148 155 161 164 159 143 141 137 135 142 114 98 96 93 87 82 83 77 70 53 53 25 26 23 351 324 358 357 358 34 48
170 208 247 270 240 163 162 169 153 153 211 207 167 150 141 140 144 153 158 164 169 165 169 161 153 142 135 116 113 97 91 90 87 89 91 84 70 51 41 32 20 18 25 24 24 30 29 40 64
185 246 246 285 46 129 143 142 150 190 222 152 150 150 147 150 158 161 166 163 161 161 171 161 149 139 135 120 114 111 108 102 98 95 94 91 78 59 46 40 25 28 23 29 30 31 27 26 30
209 256 290 59 69 103 110 121 150 212 142 113 123 140 149 156 163 171 169 160 157 164 168 161 149 146 139 127 127 119 116 116 114 103 94 101 100 87 67 48 41 37 37 47 39 33 25 23 16
212 146 40 54 73 101 125 125 164 208 147 139 133 139 151 157 161 164 167 163 163 164 163 153 151 146 139 136 126 123 121 118 112 107 107 101 101 96 80 57 42 33 30 43 54 52 38 8 2
88 67 15 21 95 137 103 293 238 194 133 142 146 145 143 156 169 181 182 171 168 162 154 155 152 139 136 137 136 129 129 124 119 116 109 102 98 95 90 74 50 28 28 49 56 47 41 27 11
71 75 311 260 173 168 150 249 230 144 145 157 155 150 151 168 182 193 182 162 157 152 155 165 156 143 137 137 133 129 131 126 122 119 112 109 103 104 96 84 60 34 42 52 62 44 39 22 11
23 308 266 272 192 166 191 255 244 139 157 182 177 170 169 171 186 183 174 159 156 156 155 159 145 142 138 132 126 122 117 116 120 118 116 116 106 103 97 86 66 51 54 47 53 51 44 20 358
259 262 254 245 216 171 216 258 235 176 186 195 188 181 179 187 196 173 158 149 149 151 153 155 142 134 126 117 106 95 94 100 113 129 141 135 121 114 102 89 71 63 64 50 47 56 42 27 349
230 239 255 252 170 166 233 256 244 192 209 216 198 190 189 194 178 163 151 150 152 158 158 158 148 145 142 135 134 135 145 145 144 167 163 151 141 131 116 102 84 73 71 58 49 62 43 23 0
210 237 261 282 115 152 254 273 257 202 217 222 210 201 194 174 164 166 160 158 165 175 175 165 162 160 164 153 144 141 133 139 145 138 146 171 160 151 140 127 114 100 86 60 44 51 58 25 23
217 205 224 198 78 46 0 318 281 244 235 239 227 203 191 179 176 177 171 170 171 185 185 177 173 166 162 144 120 99 81 69 83 129 188 212 186 171 152 149 139 126 110 96 66 58 78 56 23
253 241 174 136 103 334 29 301 288 250 259 243 234 212 196 185 178 179 175 175 187 195 183 171 170 164 160 152 151 150 155 169 193 185 188 203 193 185 174 165 154 144 130 123 105 92 85 96 48
183 65 88 89 102 28 15 294 288 296 253 242 226 216 203 188 181 185 185 184 188 184 176 169 164 164 162 162 162 153 152 163 152 145 167 183 219 209 189 171 162 163 158 155 142 125 116 114 121
119 73 56 51 62 349 269 184 280 236 225 234 218 210 204 195 188 190 187 175 175 173 172 166 167 173 168 165 164 163 164 162 158 168 173 187 210 239 194 172 171 175 176 184 184 169 158 157 146
90 86 27 356 4 270 248 224 254 248 226 214 207 206 199 192 190 189 187 184 184 182 179 173 175 182 177 171 173 176 175 172 177 180 184 183 189 206 203 177 180 186 195 199 190 186 191 185 184
172 142 157 206 240 285 300 250 257 256 240 215 192 190 187 186 191 195 194 192 192 191 184 180 185 187 180 180 184 180 177 175 184 186 182 187 194 204 196 189 194 204 205 204 194 201 212 202 209
137 154 157 131 141 299 289 287 301 270 243 190 177 177 189 192 195 199 196 194 194 193 191 188 188 188 186 186 181 181 182 184 188 186 182 187 198 202 196 197 203 211 211 209 198 213 226 213 223
121 140 103 114 146 271 299 287 264 254 220 197 193 196 205 200 199 201 198 199 200 199 194 186 188 192 188 183 184 189 189 191 186 178 188 198 203 202 191 202 209 216 220 215 208 224 228 225 233
114 104 105 112 151 163 263 275 234 223 207 199 207 206 202 200 202 203 202 200 197 192 186 187 189 188 184 186 187 186 188 189 184 191 200 200 201 201 203 209 213 222 229 224 217 233 237 239 247
163 166 148 151 212 176 189 267 275 234 220 206 210 211 207 206 206 202 198 190 189 191 190 191 191 191 192 186 184 190 188 184 190 203 208 201 205 207 208 209 216 226 230 225 223 237 239 237 248